Aeroporto :
LOGIN :

Iscrizione | Disclaimer

   EN    FR    IT 

 










Sommario :    VFR   VFR Marginale   IFR   IFR Intensivo   IFR Molto Intensivo
Visibilità : 
Base nubi : 
>= 8 km
>= 3000ft
5 / 8 km
1000 / 3000 ft
1500m / 5 km
500 / 1000 ft
800 / 1500m
200 / 500 ft
< 800m
< 200 ft
Simboli :   Temporali  Nebbia  Neve Forte  Precipitazioni Forti  Vento > 20 kt
SIGMETs :   Varie  Temporali  Ghiacco  Turbolenza  Onda orograficha  Ceneri Vulcaniche






- Altitudine del aeroporto : 290 ft
- Codice IATA : LAI


LFRO - Lannion

ULTIMO METAR :
  • 200400Z AUTO 33006KT 9999 FEW019 SCT052 14/11 Q1023

METARs OBSOLETI :
  • 200330Z AUTO 33006KT 9999 SCT020 BKN028 BKN037 14/11 Q1023
  • 200300Z AUTO 33006KT 290V360 9999 SCT022 BKN030 BKN040 14/11 Q1023
  • 200230Z AUTO 32005KT 9999 BKN022 BKN028 BKN034 14/11 Q1023
  • 200200Z AUTO 31007KT 9999 BKN021 BKN026 BKN033 14/12 Q1023

Previsioni scadute.



MetMap, La meteo Aeronautica in un colpo d'occhio ! - Copyright ORBIFLY Dicembre 2007 - Disclaimer

ORBIFLY MET'MAP TEAM :

Programmazione e sviluppo : Alexandra Zaïnal
Concezione : Baudouin d'Aumeries
Aiuto per la programmazione : Marc-Olivier Méhu
Supporto tecnico e logistico : Manuel Goepfert
Aiuto per la traduzione : Arnaldo La Scala

Contatto : metmap@orbifly.com




FONTI E CREDITI :

   NOAA